Time,TemperatureF,DewpointF,PressureIn,WindDirection,WindDirectionDegrees,WindSpeedMPH,WindSpeedGustMPH,Humidity,HourlyPrecipIn,Conditions,Clouds,dailyrainin,SoftwareType,DateUTC
2013-07-23 00:32:00,78.0,-99.9,29.80,North,-999,-999.0,-999.0,-999,0.00,,,-99.99,,2013-07-23 04:32:00,
2013-07-23 00:43:00,78.0,-99.9,29.80,North,-999,-999.0,-999.0,-999,0.00,,,-99.99,,2013-07-23 04:43:00,
2013-07-23 01:33:00,78.0,-99.9,29.78,North,-999,-999.0,-999.0,-999,0.00,,,-99.99,,2013-07-23 05:33:00,
2013-07-23 01:44:00,78.0,-99.9,29.78,North,-999,-999.0,-999.0,-999,0.00,,,-99.99,,2013-07-23 05:44:00,
2013-07-23 01:52:00,78.0,-99.9,29.78,North,-999,-999.0,-999.0,-999,0.00,,,-99.99,,2013-07-23 05:52:00,
2013-07-23 02:33:00,78.0,-99.9,29.76,North,-999,-999.0,-999.0,-999,0.00,,,-99.99,,2013-07-23 06:33:00,
2013-07-23 02:42:00,78.0,-99.9,29.76,North,-999,-999.0,-999.0,-999,0.00,,,-99.99,,2013-07-23 06:42:00,
2013-07-23 02:52:00,78.0,-99.9,29.76,North,-999,-999.0,-999.0,-999,0.00,,,-99.99,,2013-07-23 06:52:00,
2013-07-23 03:33:00,78.0,-99.9,29.74,North,-999,-999.0,-999.0,-999,0.00,,,-99.99,,2013-07-23 07:33:00,
2013-07-23 03:42:00,78.0,-99.9,29.74,North,-999,-999.0,-999.0,-999,0.00,,,-99.99,,2013-07-23 07:42:00,
2013-07-23 03:52:00,78.0,-99.9,29.74,North,-999,-999.0,-999.0,-999,0.00,,,-99.99,,2013-07-23 07:52:00,
2013-07-23 04:43:00,77.0,-99.9,29.72,North,-999,-999.0,-999.0,-999,0.00,,,-99.99,,2013-07-23 08:43:00,
2013-07-23 04:52:00,77.0,-99.9,29.72,North,-999,-999.0,-999.0,-999,0.00,,,-99.99,,2013-07-23 08:52:00,
2013-07-23 04:53:00,77.0,-99.9,29.73,North,-999,-999.0,-999.0,-999,0.02,,,-99.99,,2013-07-23 08:53:00,
2013-07-23 05:43:00,77.0,-99.9,29.73,North,-999,-999.0,-999.0,-999,0.02,,,-99.99,,2013-07-23 09:43:00,
2013-07-23 06:32:00,74.0,-99.9,29.71,North,-999,-999.0,-999.0,-999,0.47,,,-99.99,,2013-07-23 10:32:00,
2013-07-23 06:44:00,74.0,-99.9,29.71,North,-999,-999.0,-999.0,-999,0.47,,,-99.99,,2013-07-23 10:44:00,
2013-07-23 06:52:00,74.0,-99.9,29.71,North,-999,-999.0,-999.0,-999,0.47,,,-99.99,,2013-07-23 10:52:00,
2013-07-23 07:43:00,74.0,-99.9,29.70,North,-999,-999.0,-999.0,-999,0.07,,,-99.99,,2013-07-23 11:43:00,
2013-07-23 07:52:00,74.0,-99.9,29.70,North,-999,-999.0,-999.0,-999,0.07,,,-99.99,,2013-07-23 11:52:00,
2013-07-23 08:33:00,76.0,-99.9,29.69,North,-999,-999.0,-999.0,-999,0.00,,,-99.99,,2013-07-23 12:33:00,
2013-07-23 08:43:00,76.0,-99.9,29.69,North,-999,-999.0,-999.0,-999,0.00,,,-99.99,,2013-07-23 12:43:00,
2013-07-23 08:53:00,79.0,-99.9,29.67,North,-999,-999.0,-999.0,-999,0.00,,,-99.99,,2013-07-23 12:53:00,
2013-07-23 09:32:00,79.0,-99.9,29.67,North,-999,-999.0,-999.0,-999,0.00,,,-99.99,,2013-07-23 13:32:00,
2013-07-23 09:43:00,79.0,-99.9,29.67,North,-999,-999.0,-999.0,-999,0.00,,,-99.99,,2013-07-23 13:43:00,
2013-07-23 09:53:00,80.0,-99.9,29.67,North,-999,-999.0,-999.0,-999,0.00,,,-99.99,,2013-07-23 13:53:00,
2013-07-23 10:44:00,80.0,-99.9,29.67,North,-999,-999.0,-999.0,-999,0.00,,,-99.99,,2013-07-23 14:44:00,
2013-07-23 11:32:00,82.0,-99.9,29.67,North,-999,-999.0,-999.0,-999,0.00,,,-99.99,,2013-07-23 15:32:00,
2013-07-23 11:43:00,82.0,-99.9,29.67,North,-999,-999.0,-999.0,-999,0.00,,,-99.99,,2013-07-23 15:43:00,
2013-07-23 11:52:00,82.0,-99.9,29.67,North,-999,-999.0,-999.0,-999,0.00,,,-99.99,,2013-07-23 15:52:00,
2013-07-23 12:43:00,83.0,-99.9,29.66,North,-999,-999.0,-999.0,-999,0.00,,,-99.99,,2013-07-23 16:43:00,
2013-07-23 12:52:00,83.0,-99.9,29.66,North,-999,-999.0,-999.0,-999,0.00,,,-99.99,,2013-07-23 16:52:00,
2013-07-23 12:53:00,83.0,-99.9,29.65,North,-999,-999.0,-999.0,-999,0.00,,,-99.99,,2013-07-23 16:53:00,
2013-07-23 13:33:00,83.0,-99.9,29.65,North,-999,-999.0,-999.0,-999,0.00,,,-99.99,,2013-07-23 17:33:00,
2013-07-23 13:42:00,83.0,-99.9,29.65,North,-999,-999.0,-999.0,-999,0.00,,,-99.99,,2013-07-23 17:42:00,
2013-07-23 14:53:00,78.0,-99.9,29.62,North,-999,-999.0,-999.0,-999,0.06,,,-99.99,,2013-07-23 18:53:00,
2013-07-23 15:36:00,78.0,-99.9,29.62,North,-999,-999.0,-999.0,-999,0.06,,,-99.99,,2013-07-23 19:36:00,
2013-07-23 15:49:00,78.0,-99.9,29.62,North,-999,-999.0,-999.0,-999,0.06,,,-99.99,,2013-07-23 19:49:00,
2013-07-23 15:53:00,80.0,-99.9,29.61,North,-999,-999.0,-999.0,-999,0.11,,,-99.99,,2013-07-23 19:53:00,
2013-07-23 16:35:00,80.0,-99.9,29.61,North,-999,-999.0,-999.0,-999,0.11,,,-99.99,,2013-07-23 20:35:00,
2013-07-23 16:48:00,80.0,-99.9,29.61,North,-999,-999.0,-999.0,-999,0.11,,,-99.99,,2013-07-23 20:48:00,
2013-07-23 16:53:00,83.0,-99.9,29.59,North,-999,-999.0,-999.0,-999,0.03,,,-99.99,,2013-07-23 20:53:00,
2013-07-23 17:39:00,83.0,-99.9,29.59,North,-999,-999.0,-999.0,-999,0.03,,,-99.99,,2013-07-23 21:39:00,
2013-07-23 17:48:00,83.0,-99.9,29.59,North,-999,-999.0,-999.0,-999,0.03,,,-99.99,,2013-07-23 21:48:00,
2013-07-23 19:38:00,82.0,-99.9,29.58,North,-999,-999.0,-999.0,-999,0.00,,,-99.99,,2013-07-23 23:38:00,
2013-07-23 19:47:00,82.0,-99.9,29.58,North,-999,-999.0,-999.0,-999,0.00,,,-99.99,,2013-07-23 23:47:00,
2013-07-23 19:53:00,80.0,-99.9,29.60,North,-999,-999.0,-999.0,-999,0.00,,,-99.99,,2013-07-23 23:53:00,
2013-07-23 20:34:00,80.0,-99.9,29.60,North,-999,-999.0,-999.0,-999,0.00,,,-99.99,,2013-07-24 00:34:00,
2013-07-23 20:50:00,80.0,-99.9,29.60,North,-999,-999.0,-999.0,-999,0.00,,,-99.99,,2013-07-24 00:50:00,
2013-07-23 20:53:00,80.0,-99.9,29.62,North,-999,-999.0,-999.0,-999,0.00,,,-99.99,,2013-07-24 00:53:00,
2013-07-23 21:35:00,80.0,-99.9,29.62,North,-999,-999.0,-999.0,-999,0.00,,,-99.99,,2013-07-24 01:35:00,
2013-07-23 22:40:00,79.0,-99.9,29.64,North,-999,-999.0,-999.0,-999,0.00,,,-99.99,,2013-07-24 02:40:00,
2013-07-23 22:49:00,79.0,-99.9,29.64,North,-999,-999.0,-999.0,-999,0.00,,,-99.99,,2013-07-24 02:49:00,
2013-07-23 22:53:00,78.0,-99.9,29.65,North,-999,-999.0,-999.0,-999,0.00,,,-99.99,,2013-07-24 02:53:00,
2013-07-23 23:47:00,78.0,-99.9,29.65,North,-999,-999.0,-999.0,-999,0.00,,,-99.99,,2013-07-24 03:47:00,
2013-07-23 23:53:00,77.0,-99.9,29.65,North,-999,-999.0,-999.0,-999,0.00,,,-99.99,,2013-07-24 03:53:00,